owner,sensor,date,latitude,longitude,vertical_datum,direction_of_sea_water_velocity,sea_water_speed,upward_sea_water_velocity,qcFlag 
COMPS,ioos:station:USF.COMPS:C12:1,2013-04-01T00:00:00Z,27.4980,-83.7220,4.0,74.744881296942,4.5607017003966,-99999.0,'1111122,1111122,1199999999' 
COMPS,ioos:station:USF.COMPS:C12:1,2013-04-01T01:00:00Z,27.4980,-83.7220,4.0,24.393739386163,9.4429868156214,-99999.0,'1111122,1111122,1199999999' 
COMPS,ioos:station:USF.COMPS:C12:1,2013-04-01T02:00:00Z,27.4980,-83.7220,4.0,56.013832890351,10.733592129385,-99999.0,'1111122,1111122,1199999999' 
COMPS,ioos:station:USF.COMPS:C12:1,2013-04-01T03:00:00Z,27.4980,-83.7220,4.0,60.214540962311,17.513708916161,-99999.0,'1111122,1111122,1199999999' 
COMPS,ioos:station:USF.COMPS:C12:1,2013-04-01T04:00:00Z,27.4980,-83.7220,4.0,61.557071375637,24.565219315121,-99999.0,'1111122,1111122,1199999999' 
COMPS,ioos:station:USF.COMPS:C12:1,2013-04-01T05:00:00Z,27.4980,-83.7220,4.0,79.736657167229,24.695141222516,-99999.0,'1111122,1111122,1199999999' 
COMPS,ioos:station:USF.COMPS:C12:1,2013-04-01T06:00:00Z,27.4980,-83.7220,4.0,80.006419740732,23.049728848731,-99999.0,'1111122,1111122,1199999999' 
COMPS,ioos:station:USF.COMPS:C12:1,2013-04-01T07:00:00Z,27.4980,-83.7220,4.0,101.58341860469,16.434719346554,-99999.0,'1111122,1111122,1199999999' 
COMPS,ioos:station:USF.COMPS:C12:1,2013-04-01T08:00:00Z,27.4980,-83.7220,4.0,96.307091934738,19.115700353374,-99999.0,'1111122,1111122,1199999999' 
COMPS,ioos:station:USF.COMPS:C12:1,2013-04-01T09:00:00Z,27.4980,-83.7220,4.0,125.45961819516,17.065169205138,-99999.0,'1111122,1111122,1199999999' 
COMPS,ioos:station:USF.COMPS:C12:1,2013-04-01T10:00:00Z,27.4980,-83.7220,4.0,145.00797980144,14.64786673888,-99999.0,'1111122,1111122,1199999999' 
COMPS,ioos:station:USF.COMPS:C12:1,2013-04-01T11:00:00Z,27.4980,-83.7220,4.0,149.62087398863,16.807736313972,-99999.0,'1111122,1111122,1199999999' 
COMPS,ioos:station:USF.COMPS:C12:1,2013-04-01T12:00:00Z,27.4980,-83.7220,4.0,161.13906810043,17.013524032369,-99999.0,'1111122,1111122,1199999999' 
COMPS,ioos:station:USF.COMPS:C12:1,2013-04-01T13:00:00Z,27.4980,-83.7220,4.0,161.99583839409,16.82379267585,-99999.0,'1111122,1111122,1199999999' 
COMPS,ioos:station:USF.COMPS:C12:1,2013-04-01T14:00:00Z,27.4980,-83.7220,4.0,151.51416391023,14.676852523617,-99999.0,'1111122,1111122,1199999999' 
COMPS,ioos:station:USF.COMPS:C12:1,2013-04-01T15:00:00Z,27.4980,-83.7220,4.0,146.75667413804,14.228492541376,-99999.0,'1111122,1111122,1199999999' 
COMPS,ioos:station:USF.COMPS:C12:1,2013-04-01T16:00:00Z,27.4980,-83.7220,4.0,140.19442890773,9.372299611088,-99999.0,'1111122,1111122,1199999999' 
COMPS,ioos:station:USF.COMPS:C12:1,2013-04-01T18:00:00Z,27.4980,-83.7220,4.0,130.65254309244,12.126417442922,-99999.0,'1111122,1111122,1199999999' 
COMPS,ioos:station:USF.COMPS:C12:1,2013-04-01T19:00:00Z,27.4980,-83.7220,4.0,150.40770364064,18.630083198955,-99999.0,'1111122,1111122,1199999999' 
COMPS,ioos:station:USF.COMPS:C12:1,2013-04-01T21:00:00Z,27.4980,-83.7220,4.0,185.74415832377,16.985287751463,-99999.0,'1111122,1111122,1199999999' 
COMPS,ioos:station:USF.COMPS:C12:1,2013-04-01T22:00:00Z,27.4980,-83.7220,4.0,195.94539590092,19.656296701057,-99999.0,'1111122,1111122,1199999999' 
COMPS,ioos:station:USF.COMPS:C12:1,2013-04-01T23:00:00Z,27.4980,-83.7220,4.0,205.66181416896,19.858751219551,-99999.0,'1111122,1111122,1199999999' 
COMPS,ioos:station:USF.COMPS:C12:1,2013-04-02T00:00:00Z,27.4980,-83.7220,4.0,203.89516141507,17.281203661782,-99999.0,'1111122,1111122,1199999999' 
COMPS,ioos:station:USF.COMPS:C12:1,2013-04-02T02:00:00Z,27.4980,-83.7220,4.0,215.59921995898,10.822661410208,-99999.0,'1111122,1111122,1199999999' 
COMPS,ioos:station:USF.COMPS:C12:1,2013-04-02T04:00:00Z,27.4980,-83.7220,4.0,122.73522627211,6.6573267908373,-99999.0,'1111122,1111122,1199999999' 
COMPS,ioos:station:USF.COMPS:C12:1,2013-04-02T05:00:00Z,27.4980,-83.7220,4.0,87.101423200718,7.910120100226,-99999.0,'1111122,1111122,1199999999' 
COMPS,ioos:station:USF.COMPS:C12:1,2013-04-02T06:00:00Z,27.4980,-83.7220,4.0,93.209486317792,10.716809226631,-99999.0,'1111122,1111122,1199999999' 
COMPS,ioos:station:USF.COMPS:C12:1,2013-04-02T07:00:00Z,27.4980,-83.7220,4.0,81.764380675791,7.6791926658992,-99999.0,'1111122,1111122,1199999999' 
COMPS,ioos:station:USF.COMPS:C12:1,2013-04-02T08:00:00Z,27.4980,-83.7220,4.0,103.92477322041,12.466354719805,-99999.0,'1111122,1111122,1199999999' 
COMPS,ioos:station:USF.COMPS:C12:1,2013-04-02T09:00:00Z,27.4980,-83.7220,4.0,124.61597931238,13.730622709841,-99999.0,'1111122,1111122,1199999999' 
COMPS,ioos:station:USF.COMPS:C12:1,2013-04-02T10:00:00Z,27.4980,-83.7220,4.0,132.48312434306,12.881770064708,-99999.0,'1111122,1111122,1199999999' 
COMPS,ioos:station:USF.COMPS:C12:1,2013-04-02T11:00:00Z,27.4980,-83.7220,4.0,169.46081627137,4.3737855457258,-99999.0,'1111122,1111122,1199999999' 
COMPS,ioos:station:USF.COMPS:C12:1,2013-04-02T12:00:00Z,27.4980,-83.7220,4.0,167.05349048436,8.9269255625887,-99999.0,'1111122,1111122,1199999999' 
COMPS,ioos:station:USF.COMPS:C12:1,2013-04-02T13:00:00Z,27.4980,-83.7220,4.0,173.50647468746,12.37941840314,-99999.0,'1111122,1111122,1199999999' 
COMPS,ioos:station:USF.COMPS:C12:1,2013-04-02T14:00:00Z,27.4980,-83.7220,4.0,179.10482628979,12.801562404644,-99999.0,'1111122,1111122,1199999999' 
COMPS,ioos:station:USF.COMPS:C12:1,2013-04-02T15:00:00Z,27.4980,-83.7220,4.0,167.79953127262,11.356495938449,-99999.0,'1111122,1111122,1199999999' 
COMPS,ioos:station:USF.COMPS:C12:1,2013-04-02T16:00:00Z,27.4980,-83.7220,4.0,148.72229713313,12.519584657647,-99999.0,'1111122,1111122,1199999999' 
COMPS,ioos:station:USF.COMPS:C12:1,2013-04-02T18:00:00Z,27.4980,-83.7220,4.0,140.39997342333,14.276203977248,-99999.0,'1111122,1111122,1199999999' 
COMPS,ioos:station:USF.COMPS:C12:1,2013-04-02T19:00:00Z,27.4980,-83.7220,4.0,146.62589864331,15.088074761215,-99999.0,'1111122,1111122,1199999999' 
COMPS,ioos:station:USF.COMPS:C12:1,2013-04-02T20:00:00Z,27.4980,-83.7220,4.0,143.99925104584,15.821820375671,-99999.0,'1111122,1111122,1199999999' 
COMPS,ioos:station:USF.COMPS:C12:1,2013-04-02T21:00:00Z,27.4980,-83.7220,4.0,161.13100054494,16.697305171793,-99999.0,'1111122,1111122,1199999999' 
COMPS,ioos:station:USF.COMPS:C12:1,2013-04-02T22:00:00Z,27.4980,-83.7220,4.0,171.53595433604,16.984993376507,-99999.0,'1111122,1111122,1199999999' 
COMPS,ioos:station:USF.COMPS:C12:1,2013-04-02T23:00:00Z,27.4980,-83.7220,4.0,180.73452103425,23.401922997908,-99999.0,'1111122,1111122,1199999999' 
COMPS,ioos:station:USF.COMPS:C12:1,2013-04-03T00:00:00Z,27.4980,-83.7220,4.0,187.98011374517,21.609257275529,-99999.0,'1111122,1111122,1199999999' 
COMPS,ioos:station:USF.COMPS:C12:1,2013-04-03T01:00:00Z,27.4980,-83.7220,4.0,189.34897758929,16.620770138595,-99999.0,'1111122,1111122,1199999999' 
COMPS,ioos:station:USF.COMPS:C12:1,2013-04-03T02:00:00Z,27.4980,-83.7220,4.0,194.11892130306,16.807736313972,-99999.0,'1111122,1111122,1199999999' 
COMPS,ioos:station:USF.COMPS:C12:1,2013-04-03T03:00:00Z,27.4980,-83.7220,4.0,182.18164140355,10.507616285343,-99999.0,'1111122,1111122,1199999999' 
COMPS,ioos:station:USF.COMPS:C12:1,2013-04-03T04:00:00Z,27.4980,-83.7220,4.0,180.0,13.1,-99999.0,'1111122,1111122,1199999999' 
COMPS,ioos:station:USF.COMPS:C12:1,2013-04-03T05:00:00Z,27.4980,-83.7220,4.0,189.38551826004,12.264175471674,-99999.0,'1111122,1111122,1199999999' 
COMPS,ioos:station:USF.COMPS:C12:1,2013-04-03T06:00:00Z,27.4980,-83.7220,4.0,168.69006752598,8.6683331731077,-99999.0,'1111122,1111122,1199999999' 
COMPS,ioos:station:USF.COMPS:C12:1,2013-04-03T07:00:00Z,27.4980,-83.7220,4.0,141.50562664568,16.226521500309,-99999.0,'1111122,1111122,1199999999' 
COMPS,ioos:station:USF.COMPS:C12:1,2013-04-03T08:00:00Z,27.4980,-83.7220,4.0,142.94347181059,12.280065146407,-99999.0,'1111122,1111122,1199999999' 
COMPS,ioos:station:USF.COMPS:C12:1,2013-04-03T09:00:00Z,27.4980,-83.7220,4.0,135.99346885628,12.234786471369,-99999.0,'1111122,1111122,1199999999' 
COMPS,ioos:station:USF.COMPS:C12:1,2013-04-03T10:00:00Z,27.4980,-83.7220,4.0,128.32553095288,13.384319183283,-99999.0,'1111122,1111122,1199999999' 
COMPS,ioos:station:USF.COMPS:C12:1,2013-04-03T11:00:00Z,27.4980,-83.7220,4.0,128.35135481673,11.603878661896,-99999.0,'1111122,1111122,1199999999' 
COMPS,ioos:station:USF.COMPS:C12:1,2013-04-03T12:00:00Z,27.4980,-83.7220,4.0,168.45330945407,9.4921019800674,-99999.0,'1111122,1111122,1199999999' 
COMPS,ioos:station:USF.COMPS:C12:1,2013-04-03T13:00:00Z,27.4980,-83.7220,4.0,195.72474572275,10.700467279516,-99999.0,'1111122,1111122,1199999999' 
COMPS,ioos:station:USF.COMPS:C12:1,2013-04-03T14:00:00Z,27.4980,-83.7220,4.0,199.25929164377,8.7920418561333,-99999.0,'1111122,1111122,1199999999' 
COMPS,ioos:station:USF.COMPS:C12:1,2013-04-03T15:00:00Z,27.4980,-83.7220,4.0,235.00797980144,4.8826222462935,-99999.0,'1111122,1111122,1199999999' 
COMPS,ioos:station:USF.COMPS:C12:1,2013-04-03T16:00:00Z,27.4980,-83.7220,4.0,293.02549200853,4.3462627624201,-99999.0,'1111122,1111122,1199999999' 
COMPS,ioos:station:USF.COMPS:C12:1,2013-04-03T17:00:00Z,27.4980,-83.7220,4.0,31.17134902772,9.4667840368311,-99999.0,'1111122,1111122,1199999999' 
COMPS,ioos:station:USF.COMPS:C12:1,2013-04-03T18:00:00Z,27.4980,-83.7220,4.0,80.537677791974,12.165525060596,-99999.0,'1111122,1111122,1199999999' 
COMPS,ioos:station:USF.COMPS:C12:1,2013-04-03T19:00:00Z,27.4980,-83.7220,4.0,92.619548795395,15.316004700966,-99999.0,'1111122,1111122,1199999999' 
COMPS,ioos:station:USF.COMPS:C12:1,2013-04-03T20:00:00Z,27.4980,-83.7220,4.0,109.95889021755,20.214103987068,-99999.0,'1111122,1111122,1199999999' 
COMPS,ioos:station:USF.COMPS:C12:1,2013-04-03T21:00:00Z,27.4980,-83.7220,4.0,114.28582515565,17.992220541112,-99999.0,'1111122,1111122,1199999999' 
COMPS,ioos:station:USF.COMPS:C12:1,2013-04-03T22:00:00Z,27.4980,-83.7220,4.0,120.27855908502,18.643229333997,-99999.0,'1111122,1111122,1199999999' 
COMPS,ioos:station:USF.COMPS:C12:1,2013-04-03T23:00:00Z,27.4980,-83.7220,4.0,133.3896993975,17.613914953809,-99999.0,'1111122,1111122,1199999999' 
COMPS,ioos:station:USF.COMPS:C12:1,2013-04-04T00:00:00Z,27.4980,-83.7220,4.0,123.89616656336,15.420765220961,-99999.0,'1111122,1111122,1199999999' 
COMPS,ioos:station:USF.COMPS:C12:1,2013-04-04T01:00:00Z,27.4980,-83.7220,4.0,120.19162296096,6.3631753079732,-99999.0,'1111122,1111122,1199999999' 
COMPS,ioos:station:USF.COMPS:C12:1,2013-04-04T02:00:00Z,27.4980,-83.7220,4.0,237.99461679192,1.8867962264113,-99999.0,'1111122,1111122,1199999999' 
COMPS,ioos:station:USF.COMPS:C12:1,2013-04-04T03:00:00Z,27.4980,-83.7220,4.0,166.3286928678,3.807886552932,-99999.0,'1111122,1111122,1199999999' 
COMPS,ioos:station:USF.COMPS:C12:1,2013-04-04T04:00:00Z,27.4980,-83.7220,4.0,77.152295141282,11.692732785795,-99999.0,'1111122,1111122,1199999999' 
COMPS,ioos:station:USF.COMPS:C12:1,2013-04-04T05:00:00Z,27.4980,-83.7220,4.0,61.205998688994,14.948244044034,-99999.0,'1111122,1111122,1199999999' 
COMPS,ioos:station:USF.COMPS:C12:1,2013-04-04T06:00:00Z,27.4980,-83.7220,4.0,86.63353933657,13.623509092741,-99999.0,'1111122,1111122,1199999999' 
COMPS,ioos:station:USF.COMPS:C12:1,2013-04-04T07:00:00Z,27.4980,-83.7220,4.0,83.692908065262,19.115700353374,-99999.0,'1111122,1111122,1199999999' 
COMPS,ioos:station:USF.COMPS:C12:1,2013-04-04T08:00:00Z,27.4980,-83.7220,4.0,95.273895957352,26.110534272588,-99999.0,'1111122,1111122,1199999999' 
COMPS,ioos:station:USF.COMPS:C12:1,2013-04-04T09:00:00Z,27.4980,-83.7220,4.0,125.53767779197,34.409301068171,-99999.0,'1111122,1111122,1199999999' 
COMPS,ioos:station:USF.COMPS:C12:1,2013-04-04T10:00:00Z,27.4980,-83.7220,4.0,127.99061574338,34.766650687117,-99999.0,'1111122,1111122,1199999999' 
COMPS,ioos:station:USF.COMPS:C12:1,2013-04-04T11:00:00Z,27.4980,-83.7220,4.0,144.51364716848,38.931349835319,-99999.0,'1111122,1111122,1199999999' 
COMPS,ioos:station:USF.COMPS:C12:1,2013-04-04T12:00:00Z,27.4980,-83.7220,4.0,148.95177800649,34.9,-99999.0,'1111122,1111122,1199999999' 
COMPS,ioos:station:USF.COMPS:C12:1,2013-04-04T14:00:00Z,27.4980,-83.7220,4.0,165.3853960682,38.443855165683,-99999.0,'1111122,1111122,1199999999' 
COMPS,ioos:station:USF.COMPS:C12:1,2013-04-04T15:00:00Z,27.4980,-83.7220,4.0,166.3286928678,34.270978976388,-99999.0,'1111122,1111122,1199999999' 
COMPS,ioos:station:USF.COMPS:C12:1,2013-04-04T16:00:00Z,27.4980,-83.7220,4.0,155.0310126809,28.90121104729,-99999.0,'1111122,1111122,1199999999' 
COMPS,ioos:station:USF.COMPS:C12:1,2013-04-04T17:00:00Z,27.4980,-83.7220,4.0,151.45575268458,20.718349355101,-99999.0,'1111122,1111122,1199999999' 
COMPS,ioos:station:USF.COMPS:C12:1,2013-04-04T18:00:00Z,27.4980,-83.7220,4.0,149.30735712041,21.746264046958,-99999.0,'1111122,1111122,1199999999' 
COMPS,ioos:station:USF.COMPS:C12:1,2013-04-04T19:00:00Z,27.4980,-83.7220,4.0,155.11963314082,7.6059187479226,-99999.0,'1111122,1111122,1199999999' 
COMPS,ioos:station:USF.COMPS:C12:1,2013-04-04T20:00:00Z,27.4980,-83.7220,4.0,128.65980825409,10.885311203636,-99999.0,'1111122,1111122,1199999999' 
COMPS,ioos:station:USF.COMPS:C12:1,2013-04-04T21:00:00Z,27.4980,-83.7220,4.0,123.08485292873,7.8771822373232,-99999.0,'1111122,1111122,1199999999' 
COMPS,ioos:station:USF.COMPS:C12:1,2013-04-04T22:00:00Z,27.4980,-83.7220,4.0,130.01758040962,13.840881474819,-99999.0,'1111122,1111122,1199999999' 
COMPS,ioos:station:USF.COMPS:C12:1,2013-04-04T23:00:00Z,27.4980,-83.7220,4.0,108.68191186035,14.67310464762,-99999.0,'1111122,1111122,1199999999' 
COMPS,ioos:station:USF.COMPS:C12:1,2013-04-05T00:00:00Z,27.4980,-83.7220,4.0,102.84770485872,11.692732785795,-99999.0,'1111122,1111122,1199999999' 
COMPS,ioos:station:USF.COMPS:C12:1,2013-04-05T01:00:00Z,27.4980,-83.7220,4.0,102.80426606529,20.304925510821,-99999.0,'1111122,1111122,1199999999' 
COMPS,ioos:station:USF.COMPS:C12:1,2013-04-05T02:00:00Z,27.4980,-83.7220,4.0,108.98762408787,19.670282153543,-99999.0,'1111122,1111122,1199999999' 
COMPS,ioos:station:USF.COMPS:C12:1,2013-04-05T03:00:00Z,27.4980,-83.7220,4.0,127.01988625483,22.920078533897,-99999.0,'1111122,1111122,1199999999' 
COMPS,ioos:station:USF.COMPS:C12:1,2013-04-05T04:00:00Z,27.4980,-83.7220,4.0,131.5222134802,25.644492586129,-99999.0,'1111122,1111122,1199999999' 
COMPS,ioos:station:USF.COMPS:C12:1,2013-04-05T05:00:00Z,27.4980,-83.7220,4.0,132.73353991568,26.820328111341,-99999.0,'1111122,1111122,1199999999' 
COMPS,ioos:station:USF.COMPS:C12:1,2013-04-05T06:00:00Z,27.4980,-83.7220,4.0,140.72446284905,29.065615424415,-99999.0,'1111122,1111122,1199999999' 
COMPS,ioos:station:USF.COMPS:C12:1,2013-04-05T08:00:00Z,27.4980,-83.7220,4.0,130.8553762589,34.242809464178,-99999.0,'1111122,1111122,1199999999' 
COMPS,ioos:station:USF.COMPS:C12:1,2013-04-05T09:00:00Z,27.4980,-83.7220,4.0,129.35668171947,35.953859319967,-99999.0,'1111122,1111122,1199999999' 
COMPS,ioos:station:USF.COMPS:C12:1,2013-04-05T10:00:00Z,27.4980,-83.7220,4.0,123.24557854157,35.751503464889,-99999.0,'1111122,1111122,1199999999' 
COMPS,ioos:station:USF.COMPS:C12:1,2013-04-05T12:00:00Z,27.4980,-83.7220,4.0,144.40236850178,33.328216273902,-99999.0,'1111122,1111122,1199999999' 
COMPS,ioos:station:USF.COMPS:C12:1,2013-04-05T15:00:00Z,27.4980,-83.7220,4.0,182.58787850741,35.436139744617,-99999.0,'1111122,1111122,1199999999' 
COMPS,ioos:station:USF.COMPS:C12:1,2013-04-06T01:00:00Z,27.4980,-83.7220,4.0,182.02136494036,25.515877409958,-99999.0,'1111122,1111122,1199999999' 
COMPS,ioos:station:USF.COMPS:C12:1,2013-04-06T06:00:00Z,27.4980,-83.7220,4.0,190.04012629864,30.974344222275,-99999.0,'1111122,1111122,1199999999' 
COMPS,ioos:station:USF.COMPS:C12:1,2013-04-06T07:00:00Z,27.4980,-83.7220,4.0,201.55707928504,26.127571643764,-99999.0,'1111122,1111122,1199999999' 
COMPS,ioos:station:USF.COMPS:C12:1,2013-04-06T09:00:00Z,27.4980,-83.7220,4.0,188.93703180926,25.104780421266,-99999.0,'1111122,1111122,1199999999' 
COMPS,ioos:station:USF.COMPS:C12:1,2013-04-06T11:00:00Z,27.4980,-83.7220,4.0,160.59767216178,16.857342613829,-99999.0,'1111122,1111122,1199999999' 
COMPS,ioos:station:USF.COMPS:C12:1,2013-04-06T12:00:00Z,27.4980,-83.7220,4.0,163.30075576601,26.100766272276,-99999.0,'1111122,1111122,1199999999' 
COMPS,ioos:station:USF.COMPS:C12:1,2013-04-06T13:00:00Z,27.4980,-83.7220,4.0,181.74324648431,23.010649708342,-99999.0,'1111122,1111122,1199999999' 
COMPS,ioos:station:USF.COMPS:C12:1,2013-04-06T14:00:00Z,27.4980,-83.7220,4.0,170.94927832282,22.884929538891,-99999.0,'1111122,1111122,1199999999' 
COMPS,ioos:station:USF.COMPS:C12:1,2013-04-06T15:00:00Z,27.4980,-83.7220,4.0,176.63353933657,25.54407954889,-99999.0,'1111122,1111122,1199999999' 
COMPS,ioos:station:USF.COMPS:C12:1,2013-04-06T16:00:00Z,27.4980,-83.7220,4.0,183.60442053918,25.450343809073,-99999.0,'1111122,1111122,1199999999' 
COMPS,ioos:station:USF.COMPS:C12:1,2013-04-06T17:00:00Z,27.4980,-83.7220,4.0,200.55604521958,17.088007490635,-99999.0,'1111122,1111122,1199999999' 
COMPS,ioos:station:USF.COMPS:C12:1,2013-04-06T18:00:00Z,27.4980,-83.7220,4.0,191.5237217039,21.023796041629,-99999.0,'1111122,1111122,1199999999' 
COMPS,ioos:station:USF.COMPS:C12:1,2013-04-06T20:00:00Z,27.4980,-83.7220,4.0,187.4069121285,20.168291945527,-99999.0,'1111122,1111122,1199999999' 
COMPS,ioos:station:USF.COMPS:C12:1,2013-04-07T01:00:00Z,27.4980,-83.7220,4.0,154.42082095247,23.392733914615,-99999.0,'1111122,1111122,1199999999' 
COMPS,ioos:station:USF.COMPS:C12:1,2013-04-07T02:00:00Z,27.4980,-83.7220,4.0,166.40661364136,25.10318704866,-99999.0,'1111122,1111122,1199999999' 
COMPS,ioos:station:USF.COMPS:C12:1,2013-04-07T03:00:00Z,27.4980,-83.7220,4.0,-180.0,25.2,-99999.0,'1111122,1111122,1199999999' 
COMPS,ioos:station:USF.COMPS:C12:1,2013-04-07T04:00:00Z,27.4980,-83.7220,4.0,189.33141052529,21.585643377023,-99999.0,'1111122,1111122,1199999999' 
COMPS,ioos:station:USF.COMPS:C12:1,2013-04-07T05:00:00Z,27.4980,-83.7220,4.0,194.66641911379,26.462237244798,-99999.0,'1111122,1111122,1199999999' 
COMPS,ioos:station:USF.COMPS:C12:1,2013-04-07T06:00:00Z,27.4980,-83.7220,4.0,194.54963277012,27.068062361388,-99999.0,'1111122,1111122,1199999999' 
COMPS,ioos:station:USF.COMPS:C12:1,2013-04-07T07:00:00Z,27.4980,-83.7220,4.0,197.20955752055,23.65924766344,-99999.0,'1111122,1111122,1199999999' 
COMPS,ioos:station:USF.COMPS:C12:1,2013-04-07T08:00:00Z,27.4980,-83.7220,4.0,193.67904248783,19.451735141113,-99999.0,'1111122,1111122,1199999999' 
COMPS,ioos:station:USF.COMPS:C12:1,2013-04-07T09:00:00Z,27.4980,-83.7220,4.0,182.69780563332,19.121192431436,-99999.0,'1111122,1111122,1199999999' 
COMPS,ioos:station:USF.COMPS:C12:1,2013-04-07T10:00:00Z,27.4980,-83.7220,4.0,159.14554196042,15.730543537971,-99999.0,'1111122,1111122,1199999999' 
COMPS,ioos:station:USF.COMPS:C12:1,2013-04-07T11:00:00Z,27.4980,-83.7220,4.0,138.32312044514,10.978615577567,-99999.0,'1111122,1111122,1199999999' 
COMPS,ioos:station:USF.COMPS:C12:1,2013-04-07T12:00:00Z,27.4980,-83.7220,4.0,151.83393082068,14.405901568455,-99999.0,'1111122,1111122,1199999999' 
COMPS,ioos:station:USF.COMPS:C12:1,2013-04-07T13:00:00Z,27.4980,-83.7220,4.0,151.24763157279,12.889142717807,-99999.0,'1111122,1111122,1199999999' 
COMPS,ioos:station:USF.COMPS:C12:1,2013-04-07T14:00:00Z,27.4980,-83.7220,4.0,153.61858851304,13.95313584826,-99999.0,'1111122,1111122,1199999999' 
COMPS,ioos:station:USF.COMPS:C12:1,2013-04-07T15:00:00Z,27.4980,-83.7220,4.0,-180.0,0.0,-99999.0,'1114422,1111122,1199999999' 
COMPS,ioos:station:USF.COMPS:C12:1,2013-04-07T16:00:00Z,27.4980,-83.7220,4.0,197.70042778867,9.8671171068352,-99999.0,'1111122,1111122,1199999999' 
COMPS,ioos:station:USF.COMPS:C12:1,2013-04-07T17:00:00Z,27.4980,-83.7220,4.0,207.78392641221,10.511898020814,-99999.0,'1111122,1111122,1199999999' 
COMPS,ioos:station:USF.COMPS:C12:1,2013-04-07T18:00:00Z,27.4980,-83.7220,4.0,212.31247862613,13.843771162512,-99999.0,'1111122,1111122,1199999999' 
COMPS,ioos:station:USF.COMPS:C12:1,2013-04-07T19:00:00Z,27.4980,-83.7220,4.0,205.48071794779,14.179210133149,-99999.0,'1111122,1111122,1199999999' 
COMPS,ioos:station:USF.COMPS:C12:1,2013-04-07T20:00:00Z,27.4980,-83.7220,4.0,206.56505117708,15.876082640249,-99999.0,'1111122,1111122,1199999999' 
COMPS,ioos:station:USF.COMPS:C12:1,2013-04-07T21:00:00Z,27.4980,-83.7220,4.0,186.18861596324,8.3486525858967,-99999.0,'1111122,1111122,1199999999' 
COMPS,ioos:station:USF.COMPS:C12:1,2013-04-07T22:00:00Z,27.4980,-83.7220,4.0,132.82525588539,11.180339887499,-99999.0,'1111122,1111122,1199999999' 
COMPS,ioos:station:USF.COMPS:C12:1,2013-04-08T02:00:00Z,27.4980,-83.7220,4.0,117.81041544385,20.576685836159,-99999.0,'1111122,1111122,1199999999' 
COMPS,ioos:station:USF.COMPS:C12:1,2013-04-08T03:00:00Z,27.4980,-83.7220,4.0,132.90984084629,19.387624919004,-99999.0,'1111122,1111122,1199999999' 
COMPS,ioos:station:USF.COMPS:C12:1,2013-04-08T04:00:00Z,27.4980,-83.7220,4.0,154.41148685868,23.616307924822,-99999.0,'1111122,1111122,1199999999' 
COMPS,ioos:station:USF.COMPS:C12:1,2013-04-08T05:00:00Z,27.4980,-83.7220,4.0,173.14023999447,26.791789787172,-99999.0,'1111122,1111122,1199999999' 
COMPS,ioos:station:USF.COMPS:C12:1,2013-04-08T06:00:00Z,27.4980,-83.7220,4.0,186.22945400302,28.568689154387,-99999.0,'1111122,1111122,1199999999' 
COMPS,ioos:station:USF.COMPS:C12:1,2013-04-08T07:00:00Z,27.4980,-83.7220,4.0,193.47949988287,27.456328960733,-99999.0,'1111122,1111122,1199999999' 
COMPS,ioos:station:USF.COMPS:C12:1,2013-04-08T08:00:00Z,27.4980,-83.7220,4.0,198.66691427422,23.432669502214,-99999.0,'1111122,1111122,1199999999' 
COMPS,ioos:station:USF.COMPS:C12:1,2013-04-08T10:00:00Z,27.4980,-83.7220,4.0,205.20112364548,9.394147114028,-99999.0,'1111122,1111122,1199999999' 
COMPS,ioos:station:USF.COMPS:C12:1,2013-04-08T11:00:00Z,27.4980,-83.7220,4.0,328.20108717571,5.8830264320331,-99999.0,'1111122,1111122,1199999999' 
COMPS,ioos:station:USF.COMPS:C12:1,2013-04-08T12:00:00Z,27.4980,-83.7220,4.0,29.197486046064,3.8948684188301,-99999.0,'1111122,1111122,1199999999' 
COMPS,ioos:station:USF.COMPS:C12:1,2013-04-08T13:00:00Z,27.4980,-83.7220,4.0,49.685899839503,4.3278170016765,-99999.0,'1111122,1111122,1199999999' 
COMPS,ioos:station:USF.COMPS:C12:1,2013-04-08T14:00:00Z,27.4980,-83.7220,4.0,102.03059609654,6.2369864518051,-99999.0,'1111122,1111122,1199999999' 
COMPS,ioos:station:USF.COMPS:C12:1,2013-04-08T15:00:00Z,27.4980,-83.7220,4.0,87.455195620187,4.5044422518221,-99999.0,'1111122,1111122,1199999999' 
COMPS,ioos:station:USF.COMPS:C12:1,2013-04-08T16:00:00Z,27.4980,-83.7220,4.0,131.18592516571,1.0630145812735,-99999.0,'1111122,1111122,1199999999' 
COMPS,ioos:station:USF.COMPS:C12:1,2013-04-08T17:00:00Z,27.4980,-83.7220,4.0,123.69006752598,1.0816653826392,-99999.0,'1111122,1111122,1199999999' 
COMPS,ioos:station:USF.COMPS:C12:1,2013-04-08T18:00:00Z,27.4980,-83.7220,4.0,174.17365797044,4.9254441424099,-99999.0,'1111122,1111122,1199999999' 
COMPS,ioos:station:USF.COMPS:C12:1,2013-04-08T19:00:00Z,27.4980,-83.7220,4.0,220.67493956526,8.4386017799159,-99999.0,'1111122,1111122,1199999999' 
COMPS,ioos:station:USF.COMPS:C12:1,2013-04-08T20:00:00Z,27.4980,-83.7220,4.0,69.775140568832,2.0248456731317,-99999.0,'1111122,1111122,1199999999' 
COMPS,ioos:station:USF.COMPS:C12:1,2013-04-08T21:00:00Z,27.4980,-83.7220,4.0,122.24246783912,7.6850504227363,-99999.0,'1111122,1111122,1199999999' 
COMPS,ioos:station:USF.COMPS:C12:1,2013-04-08T22:00:00Z,27.4980,-83.7220,4.0,83.57125225117,14.289856542317,-99999.0,'1111122,1111122,1199999999' 
COMPS,ioos:station:USF.COMPS:C12:1,2013-04-08T23:00:00Z,27.4980,-83.7220,4.0,90.290839022351,19.700253805472,-99999.0,'1111122,1111122,1199999999' 
COMPS,ioos:station:USF.COMPS:C12:1,2013-04-09T00:00:00Z,27.4980,-83.7220,4.0,93.462073056135,28.151376520518,-99999.0,'1111122,1111122,1199999999' 
COMPS,ioos:station:USF.COMPS:C12:1,2013-04-09T01:00:00Z,27.4980,-83.7220,4.0,102.41429264609,32.561326754296,-99999.0,'1111122,1111122,1199999999' 
COMPS,ioos:station:USF.COMPS:C12:1,2013-04-09T02:00:00Z,27.4980,-83.7220,4.0,115.97439396243,30.367416748877,-99999.0,'1111122,1111122,1199999999' 